Satellite-Ground Cal/Val Site Overpasses Predictions

Prediction of Satellite NPP Overpassing Cal/Val Site: Antarctic Dome C

Ground Cal/Val Site Location: Latitude: -75.10, Longitude: 123.35; Satellite-Ground Site NADIR distance within 100 km.

Table of predicted overpasses for the next 14.0 days since TLE Epoch: 11/27/2021
Interval Starting Time Ending Time Minimum Distance Time Minimum Distance (km)
1 11/27/2021 07:20:32 11/27/2021 07:20:54 11/27/2021 07:20:43 67.36
2 11/29/2021 15:02:46 11/29/2021 15:03:09 11/29/2021 15:02:57 61.46
3 11/30/2021 14:43:54 11/30/2021 14:44:20 11/30/2021 14:44:07 48.04
4 12/01/2021 07:45:35 12/01/2021 07:45:54 12/01/2021 07:45:45 77.36
5 12/02/2021 07:26:41 12/02/2021 07:27:09 12/02/2021 07:26:55 30.43
6 12/04/2021 15:09:08 12/04/2021 15:09:11 12/04/2021 15:09:09 98.97
7 12/05/2021 14:50:03 12/05/2021 14:50:32 12/05/2021 14:50:18 12.83
8 12/07/2021 07:32:51 12/07/2021 07:33:20 12/07/2021 07:33:05 6.08
